Preview of NWS' New Version of Forecast
This preview is not operational and should not be used for support decisions.

Regional Weather Roundup (RWR)

Issued by National Weather Service (NWS)

                            
000
ASUS43 KMKX 190800
RWRWI 

WISCONSIN REGIONAL WEATHER ROUNDUP
NATIONAL WEATHER SERVICE MILWAUKEE/SULLIVAN WI
300 AM CDT MON AUG 19 2019

NOTE: "FAIR" INDICATES FEW OR NO CLOUDS BELOW 12,000 FEET WITH NO
SIGNIFICANT WEATHER AND/OR OBSTRUCTIONS TO VISIBILITY.

WIZ001-002-006>008-014>016-023>028-190900-
NORTHWEST WISCONSIN
  
CITY           SKY/WX    TMP DP  RH WIND       PRES   REMARKS
SUPERIOR ARPT  FAIR      50  47  88 CALM      29.92R                  
ASHLAND        FAIR      54  46  74 SW9       29.92S                  
HAYWARD        FAIR      45  43  93 CALM      29.96R                  
SIREN          FAIR      48  46  92 CALM      29.96R                  
CUMBERLAND     FAIR      46  45  93 S3        29.97R                  
RICE LAKE      HAZE      49  34  56 CALM      29.97S VSB 1/4          
CHETEK         FAIR      50  50 100 CALM      29.97R                  
LADYSMITH      FAIR      51  51 100 CALM      29.98R                  
EAU CLAIRE     NOT AVBL                                               
MENOMONIE      FAIR      50  48  95 CALM      29.98R                  
NEW RICHMOND   FAIR      51  50  98 CALM      29.97S                  
OSCEOLA        FAIR      51  51 100 CALM      29.99S                  
$$
 
WIZ003>005-009-010-017-018-190900-
NORTH CENTRAL WISCONSIN
  
CITY           SKY/WX    TMP DP  RH WIND       PRES   REMARKS
MANITOWISH WTR FAIR      46  46 100 CALM      29.94S                  
ARBOR VITAE    FAIR      52  49  90 CALM      29.94R                  
WOODRUFF       FAIR      52  49  90 CALM      29.94R                  
RHINELANDER    FAIR      48  46  93 CALM      29.96R                  
EAGLE RIVER    FAIR      46  46 100 CALM      29.94R                  
LAND O LAKES   FAIR      44  44  97 CALM      29.95R                  
PHILLIPS       FAIR      46  46 100 CALM      29.96R FOG              
TOMAHAWK       FAIR      44  44  97 CALM      29.96R                  
MEDFORD        FAIR      49  49  97 CALM      29.97R                  
MERRILL        FOG       47  47 100 CALM      29.97R VSB 3/4          
$$
 
WIZ029-030-035-036-043>047-190900-
CENTRAL WISCONSIN
  
CITY           SKY/WX    TMP DP  RH WIND       PRES   REMARKS
WAUSAU         FAIR      55  52  89 NW5       29.96R                  
MOSINEE        FAIR      54  52  94 W5        29.98R                  
MARSHFIELD     FAIR      53  52  96 CALM      29.97R                  
STEVENS POINT  FAIR      49  49 100 CALM      29.98R                  
WAUPACA        FAIR      59  56  89 NW6       29.96S                  
WAUTOMA        FAIR      55  54  96 CALM      29.97R                  
WISC RAPIDS    FAIR      54  52  93 CALM      29.97R FOG              
CAMP DOUGLAS   FOG       54  54 100 CALM      29.96S VSB 1/2          
$$
 
WIZ011>013-019>022-031-037>040-048>050-190900-
NORTHEAST WISCONSIN
  
CITY           SKY/WX    TMP DP  RH WIND       PRES   REMARKS
ANTIGO         MOCLDY    47  47 100 CALM      29.98R FOG              
SHAWANO        FAIR      58  56  94 W3        29.95R                  
OCONTO         FAIR      53  53  98 CALM      29.93R                  
STURGEON BAY   FAIR      57  57 100 CALM      29.94R                  
GREEN BAY      FAIR      60  58  92 W6        29.94R                  
MANITOWOC      FAIR      62  59  90 W5        29.94R                  
APPLETON       NOT AVBL                                               
CLINTONVILLE   FAIR      57  54  88 W3        29.95R                  
OSHKOSH        FAIR      63  58  83 W5        29.95R                  
$$
 
WIZ032>034-041-042-053>061-190900-
SOUTHWEST WISCONSIN
  
CITY           SKY/WX    TMP DP  RH WIND       PRES   REMARKS
LA CROSSE      FAIR      59  57  93 CALM      29.96R FOG              
SPARTA         MOCLDY    48  48  99 CALM      29.97S                  
VIROQUA        FAIR      59  59 100 CALM      29.97S                  
BOSCOBEL       FOG       64  63  96 CALM      29.97R VSB 1/4          
PRAIRIE DU CHI FAIR      61  60  96 CALM      29.96R                  
PLATTEVILLE      N/A     62  62 100 N5        29.97S                  
$$

WIZ056-057-062-063-064-067-068-190900-
SOUTH CENTRAL WISCONSIN
  
CITY           SKY/WX    TMP DP  RH WIND       PRES   REMARKS
REEDSBURG      FAIR      60  60 100 CALM      29.97R                  
BARABOO/DELLS  CLOUDY    61  60  96 CALM      29.97R                  
LONE ROCK      NOT AVBL                                               
MINERAL POINT    N/A     63  63 100 MISG      29.97R                  
MADISON        FOG       62  61  96 CALM      29.96R VSB 1            
MIDDLETON      FAIR      64  29  27 NW3       29.97R                  
WATERTOWN      FAIR      63  63 100 CALM      29.95R                  
MONROE         FAIR      69  66  90 W9        29.96R                  
JANESVILLE     FOG       63  63 100 CALM      29.95R VSB 3/4          
$$
 
WIZ051-052-058>065-066-070>072-190900-
SOUTHEAST WISCONSIN
  
CITY           SKY/WX    TMP DP  RH WIND       PRES   REMARKS
MILWAUKEE      FAIR      70  64  81 W5        29.94R                  
WAUKESHA       FAIR      63  61  94 W3        29.96R                  
MILWAUKEE/TIMM FAIR      63  59  88 NW6       29.95S                  
RACINE         FAIR      67  64  90 W5        29.95S                  
KENOSHA        FAIR      63  63 100 W3        29.95R FOG              
FOND DU LAC    CLOUDY    66  60  81 CALM      29.95R                  
SHEBOYGAN      FAIR      60  59  96 W3        29.94R                  
WEST BEND      MOCLDY    63  63 100 CALM      29.95R                  
JUNEAU         FAIR      64  61  93 CALM      29.97R                  
$$

LSZ147-162-190900-
LAKE SUPERIOR
  
STATION/POSITION TIME  TEMP    WIND        PRES    WAVE
                       AIR SEA DIR/SP/G            HT/PER
                 (UTC) (F)     (DEG/KT/KT) (MB)    (FT/S)
W MID LAKE BUOY  0650   66 63  260/ 16/ 19 1009.9R   3/ 4
DEVILS ISLAND    0700   64     240/ 18/ 22 1011.5R
SAXON HARBOR     0730   58     180/  8/ 10 1012.5R
$$
 
LMZ867-665-643>646-190900-
LAKE MICHIGAN
  
STATION/POSITION TIME  TEMP    WIND        PRES    WAVE
                       AIR SEA DIR/SP/G            HT/PER
                 (UTC) (F)     (DEG/KT/KT) (MB)    (FT/S)
S GREEN BAY BUOY 0600   72 69  280/  8/ 10 1012.7
N MID LAKE BUOY  0740   68 69  280/  8/ 10 1013.0R
NORTHPORT PIER   0740   61     220/  2/  3 1013.2R
KEWAUNEE LAKESHO 0724   63     290/  3/  5 1012.8
SHEBOYGAN LAKESH 0700   68     270/  7/  8 1013.3R
PORT WASHINGTON  0740   68     290/  5/  7 1014.9R
S MID LAKE BUOY  0740   73 73  270/ 10/ 12 1013.7R
KENOSHA   LAKESH 0700   70     270/  6/  7 1013.2
$$

TC  - TEMPERATURE IN CELSIUS
VSB - VISIBILITY IN STATUTE MILES
WCI - WIND CHILL INDEX
HX  - HEAT INDEX